Temp_Advection
nan nan nan nan nan nan nan nan nan nan nan nan nan nan nan nan nan nan nan nan nan nan nan nan nan nan nan nan nan nan nan nan nan nan nan nan nan nan nan nan nan nan nan nan nan
nan -0 0 0 -0 0 0 0 -0 -0 -0 -1 -0 -0 -0 -1 -1 -0 -0 -0 -0 -0 -0 -0 -0 -0 0 0 0 -0 -0 -0 -0 -0 -0 -0 -0 -1 -0 -1 -0 -0 0 0 nan
nan 0 -0 0 -0 0 0 0 -0 -0 -0 -0 -1 -0 -0 -1 -1 0 0 -0 -0 -0 -0 -0 -0 0 0 0 0 -0 -0 -0 -0 -1 0 0 -0 -0 0 -0 -1 -0 -0 0 nan
nan 0 0 -0 -0 0 0 0 0 -0 -0 -0 -1 -1 -0 -1 -0 -0 -0 0 -0 -0 -0 -0 -0 -0 0 0 0 0 -0 -0 -0 -0 0 -0 -0 -0 -0 -0 -0 -0 0 0 nan
nan 0 0 0 0 0 0 0 0 -0 -0 -0 -0 -1 -1 -0 -2 -1 0 0 0 -0 -0 -0 -0 0 -0 0 -0 -0 -0 -0 -0 -0 -0 0 0 -1 -1 -1 -0 -0 -0 0 nan
nan 0 0 0 0 0 0 0 0 0 -0 -0 -0 -0 0 -1 -2 -0 -0 -0 0 0 -0 -0 0 -0 0 0 -0 -0 0 -0 -1 -0 0 0 -0 0 -1 -0 0 -0 -0 -0 nan
nan 0 1 1 0 -0 0 1 0 0 -0 -0 -0 -0 -1 -4 -2 -0 -1 -0 0 0 -0 -0 0 0 -0 0 -0 0 0 -0 -0 -0 -0 -0 0 -0 -0 -0 -0 0 0 0 nan
nan -0 0 1 1 0 0 1 1 0 -0 -0 -0 -0 -2 -2 -1 -1 0 -0 -0 1 -0 -0 0 0 0 0 -0 -0 -0 -0 -0 -0 -0 -0 0 -0 -0 -1 -1 -0 -0 -0 nan
nan 0 0 1 1 0 1 1 1 0 -0 -0 -0 -0 -2 -1 -0 -0 -0 -0 0 0 -0 0 0 0 0 -0 -0 -0 -0 -0 -0 0 -0 -0 -0 -0 -1 -0 -1 -1 -1 -2 nan
nan 0 0 1 1 1 1 1 0 -0 -0 0 0 -1 -3 -1 -0 -0 -0 0 0 0 0 0 1 -0 -0 0 -0 -0 -0 -0 -0 -0 -0 -0 0 -1 -3 -1 -1 -1 -2 -1 nan
nan 0 0 1 1 1 1 0 -0 0 -0 -1 -0 -0 -0 -0 -0 0 0 0 0 0 0 0 0 -0 -1 -0 -0 0 0 -0 -0 0 0 0 0 -1 -1 -0 -1 -1 -1 -1 nan
nan 0 1 1 1 1 1 -0 -0 0 -0 -1 0 -1 -2 1 -1 -1 0 0 0 1 0 -0 -0 -1 -0 -0 0 0 0 0 -0 0 0 0 -0 -0 0 -1 -0 -0 -0 0 nan
nan 0 1 1 1 1 1 0 -0 0 -0 -1 0 -1 -1 1 0 -1 -1 0 0 0 0 0 -0 0 0 0 0 0 -0 -0 0 -0 0 -0 -0 -0 -0 -1 -1 -1 0 0 nan
nan -0 1 0 0 1 0 -0 -0 -0 -0 -0 -0 -0 0 0 -0 -1 -0 1 0 0 -0 -0 0 0 0 -0 0 -0 -0 0 0 0 -0 -0 -0 -0 -0 -0 -0 -0 0 1 nan
nan -0 0 0 0 1 0 -0 -0 0 -0 -0 -0 0 0 0 0 -0 0 0 -0 0 -0 0 -0 0 -0 0 -0 -0 0 0 0 0 0 0 0 0 0 -0 -0 -0 0 1 nan
nan -0 -0 1 1 0 0 -0 0 0 -1 -0 -0 0 0 -0 -0 0 0 0 1 0 -0 -0 -0 -0 -0 -0 -0 -0 -0 -0 -0 0 -0 0 0 -0 0 0 -0 -0 0 0 nan
nan -0 -0 1 0 0 0 0 0 -1 0 -0 0 -0 -0 -0 -0 0 0 0 0 0 -0 -0 1 0 0 -0 -0 -0 -0 0 0 -0 -0 -0 0 0 -0 -0 -0 -0 0 -0 nan
nan -1 -1 1 -0 0 -0 0 -0 -1 -0 0 -0 -0 -0 -0 -0 0 -0 0 -0 -0 -0 1 -0 0 0 0 0 0 0 -0 0 0 0 -0 0 0 -0 0 0 0 -0 0 nan
nan -1 -0 1 1 1 -0 0 -0 -0 -0 -0 0 -0 0 0 -0 -0 0 -0 -0 0 -0 -0 -0 -0 -0 0 1 0 0 -0 -0 -0 -0 0 0 -0 0 0 -0 -0 -0 -0 nan
nan -2 -1 -0 2 -0 -0 0 -0 -0 0 -0 0 -0 0 0 0 1 0 -0 0 0 0 0 0 -0 -0 0 -0 0 0 0 -0 -0 0 0 -0 0 0 0 0 -0 -0 -1 nan
nan -1 -0 1 1 -0 0 0 -0 0 0 1 0 0 0 0 0 0 0 -0 0 -0 0 -0 0 -0 -0 0 0 0 0 0 -0 0 1 -0 0 0 0 0 0 0 -0 -0 nan
nan -0 1 1 0 0 1 0 -0 1 1 1 0 0 0 0 0 -0 -0 0 0 0 0 0 0 0 0 -0 -0 -0 -0 0 0 0 -0 0 -0 0 -0 0 -0 -0 -0 -0 nan
nan 0 3 2 0 0 0 0 1 0 0 1 0 0 0 0 0 0 1 -0 0 0 0 0 0 0 -0 0 -0 0 -0 -0 -0 -0 -0 -0 -0 -0 -0 -0 -0 0 -0 -0 nan
nan 0 0 0 1 -0 -1 0 0 1 0 0 0 0 0 0 0 1 0 0 0 0 0 -0 0 0 0 0 -0 0 0 0 -0 -0 -0 -1 -0 0 0 -0 -0 -1 -1 -1 nan
nan 0 -0 -0 0 1 -1 -0 -0 0 0 1 0 0 -0 0 -0 0 0 0 0 0 -0 0 0 -0 -0 -0 -0 -0 0 0 0 -0 0 0 0 -0 0 0 -0 -0 -0 -0 nan
nan -0 -0 -0 -1 0 1 0 -0 -0 0 0 -0 0 1 0 0 -0 0 0 0 -0 -0 -0 0 -0 -0 -0 -0 0 0 0 0 -0 0 0 -0 -0 -0 0 0 -0 -0 -0 nan
nan nan nan nan nan nan nan nan nan nan nan nan nan nan nan nan nan nan nan nan nan nan nan nan nan nan nan nan nan nan nan nan nan nan nan nan nan nan nan nan nan nan nan nan nan
Wind_Speed
25 23 22 20 18 16 16 15 14 14 15 17 17 18 20 23 22 23 7 3 4 6 5 4 2 3 3 4 7 6 3 3 4 5 6 9 8 9 17 5 10 4 6 6 5
28 26 24 23 21 18 17 16 16 15 16 18 20 19 20 23 23 14 4 6 5 7 8 8 4 3 2 2 3 4 4 8 8 5 6 6 6 21 9 12 5 10 10 8 6
31 29 27 25 23 19 18 18 17 16 16 18 20 21 21 21 21 4 3 15 16 13 8 5 2 2 2 2 5 4 5 5 4 10 10 6 6 11 3 5 14 14 13 4 9
33 32 29 27 25 22 19 20 19 18 17 18 18 20 22 20 6 4 7 16 11 4 4 3 1 2 2 2 1 3 7 6 4 3 2 5 12 6 8 11 20 19 14 12 12
35 34 32 30 27 25 21 21 20 19 18 17 18 20 21 10 21 20 21 9 9 7 4 3 3 1 2 2 3 5 4 8 9 12 15 14 10 12 15 18 12 10 15 17 18
38 36 34 32 29 26 23 21 22 20 18 17 17 19 21 8 15 4 7 14 18 12 7 4 1 4 5 4 3 1 7 12 12 17 16 9 8 4 8 17 15 15 19 22 23
40 39 37 34 31 28 25 22 22 20 19 17 17 19 26 33 24 29 22 21 14 16 16 13 8 6 1 4 6 7 6 6 6 7 5 8 1 6 7 10 7 11 15 22 26
39 40 39 36 32 29 25 23 21 20 18 17 17 19 19 21 23 27 23 21 16 19 25 16 11 7 6 5 5 5 2 4 4 3 3 4 7 6 10 18 19 17 14 12 16
41 39 39 37 34 30 26 23 22 19 18 17 16 14 18 16 13 4 9 7 7 6 9 13 10 7 4 3 4 4 5 4 5 4 2 5 7 5 23 17 20 19 17 15 14
42 40 38 37 34 30 26 23 21 18 19 18 16 9 21 20 17 9 4 6 4 9 7 9 7 3 2 4 5 5 4 5 4 3 7 8 10 8 25 18 18 15 16 17 16
45 40 38 35 33 31 28 18 16 10 20 16 8 8 5 4 4 3 3 7 8 8 5 4 4 10 11 7 4 3 3 8 5 3 3 8 8 12 19 13 9 15 19 19 20
42 43 39 34 32 31 29 26 17 5 8 20 32 33 37 32 12 21 9 2 6 7 5 2 9 12 5 6 7 5 4 8 10 4 4 7 8 11 9 6 12 16 18 16 16
38 39 43 36 30 31 33 30 20 13 7 13 30 28 34 31 25 32 26 18 6 7 8 10 7 9 8 5 6 6 8 8 8 8 4 5 7 5 5 12 13 16 15 15 15
40 38 43 40 37 39 36 32 20 6 5 7 10 13 23 18 9 32 39 26 8 16 7 9 8 8 5 6 10 11 8 12 7 1 4 2 6 4 5 5 6 12 14 14 16
38 40 46 52 43 47 36 32 25 6 5 4 8 4 12 16 2 8 30 30 23 8 9 8 8 10 15 13 9 7 6 9 7 5 1 2 3 5 4 4 2 5 6 10 13
35 39 47 50 46 44 40 35 26 7 15 4 9 8 7 12 2 4 5 15 14 7 5 7 3 7 10 7 10 3 5 4 4 3 5 10 8 5 6 5 4 2 2 6 11
43 37 58 49 46 51 47 39 8 11 4 6 6 8 7 6 4 4 5 10 7 8 14 16 19 3 5 4 3 5 5 1 1 1 6 2 9 4 2 4 6 6 2 5 7
40 33 55 54 52 55 52 15 8 13 11 1 5 8 9 8 6 7 8 9 8 2 3 10 6 15 7 24 12 7 9 5 6 4 2 4 7 4 3 6 6 4 6 9 12
36 35 59 53 61 63 39 17 15 12 27 5 3 5 7 5 4 6 7 6 8 9 7 6 4 2 2 2 17 8 10 7 3 1 1 5 2 3 4 2 1 5 8 13 20
38 37 47 49 57 64 20 14 13 16 8 30 22 8 8 7 7 8 7 2 5 7 3 5 2 0 2 2 4 6 6 4 2 6 9 4 5 4 7 6 1 3 8 16 23
34 21 29 51 65 43 20 14 11 15 17 18 26 16 12 8 6 4 3 3 2 3 3 5 4 2 1 0 5 2 3 2 5 2 5 2 6 3 9 7 3 6 11 17 23
35 7 31 56 16 10 17 10 18 17 13 10 5 14 11 11 10 13 13 5 3 5 8 2 5 4 3 2 4 2 2 3 5 5 0 3 7 6 11 7 6 9 19 29 32
19 14 41 61 17 8 6 5 12 15 13 12 10 15 4 8 5 14 12 1 4 5 7 7 2 2 1 1 2 1 1 3 5 4 6 5 5 7 2 5 16 20 28 33 38
16 6 9 24 22 18 10 10 7 16 15 8 7 5 7 8 6 11 10 4 6 4 7 6 4 6 7 2 3 5 4 3 4 2 1 11 20 7 7 9 13 20 30 35 37
20 5 8 12 8 17 19 17 17 7 6 17 7 13 15 5 6 7 9 6 4 4 3 3 4 3 4 5 4 1 5 6 5 4 8 5 12 10 9 8 15 20 25 27 31
11 4 7 14 18 19 19 15 21 8 11 12 9 15 18 9 10 12 10 6 6 3 3 3 3 3 2 3 4 3 6 7 7 6 10 11 19 9 19 12 11 19 23 23 29
20 13 9 17 16 16 15 16 23 19 5 13 14 12 8 5 9 13 13 9 9 6 4 4 6 4 3 6 1 7 15 16 8 5 8 10 10 5 10 13 20 18 23 27 27
Wind_Direction
249 249 251 252 254 259 268 274 282 287 300 303 310 315 317 319 320 325 336 43 62 57 28 7 247 207 338 214 197 164 89 197 219 189 250 305 355 311 330 325 315 269 262 241 245
245 246 247 249 253 255 264 269 279 287 296 301 304 312 315 320 322 325 103 82 31 346 335 325 272 241 247 180 187 131 157 215 207 201 256 300 323 311 335 341 263 285 275 264 227
247 247 248 249 251 252 259 266 272 281 289 297 302 305 314 320 327 176 128 324 309 304 308 333 315 178 186 209 192 183 209 210 243 243 286 291 313 331 308 328 306 296 293 250 202
245 246 247 248 251 253 254 262 268 276 284 292 301 304 307 317 299 206 277 315 323 301 283 310 303 139 136 215 148 296 248 218 245 263 297 281 303 290 245 275 301 300 284 267 223
245 245 246 247 249 252 252 258 264 270 279 290 299 305 305 287 271 285 278 258 315 305 285 257 294 189 178 254 315 218 258 263 274 297 291 287 256 261 268 289 293 278 280 263 245
245 244 244 246 246 250 253 256 262 268 276 285 295 300 301 280 293 286 280 260 289 273 254 242 185 313 281 241 177 264 283 286 294 284 268 231 256 183 279 299 285 288 284 262 249
242 243 242 244 244 246 251 254 260 266 272 281 291 297 293 270 280 281 275 272 270 262 249 240 272 270 89 301 287 299 316 320 244 248 231 189 187 204 324 356 319 333 319 272 259
243 241 241 242 242 245 246 251 256 261 270 279 288 295 277 289 278 274 276 274 264 258 242 233 258 255 208 248 336 338 356 359 319 348 307 118 272 276 343 336 326 328 345 333 278
242 240 239 239 239 240 243 248 256 260 263 276 286 284 274 282 276 320 287 275 284 195 204 223 231 210 137 119 7 357 265 254 323 22 11 38 286 290 317 318 307 317 341 5 17
240 240 238 235 235 236 237 241 248 260 261 262 264 284 257 265 273 283 252 222 167 171 170 183 195 124 68 121 224 211 242 263 203 319 10 326 285 292 301 297 292 329 38 54 56
238 238 238 234 230 229 226 222 233 243 229 213 225 221 270 280 261 180 117 181 168 176 177 174 156 217 201 197 186 182 219 261 255 207 283 254 254 277 285 283 340 57 59 58 58
244 235 234 231 226 225 224 209 221 182 276 242 241 249 252 268 276 240 242 242 181 196 128 76 224 231 167 204 223 217 247 270 297 212 178 279 255 261 263 70 93 82 69 60 56
241 243 231 222 218 219 218 215 222 242 274 243 244 232 243 244 238 245 243 242 188 191 179 205 214 214 174 194 216 230 236 264 247 318 229 251 283 231 67 107 75 67 78 70 54
247 241 241 213 209 212 211 210 207 178 271 237 211 235 218 226 258 238 234 223 202 212 172 231 202 222 175 203 196 244 196 239 252 233 270 13 287 258 157 113 65 47 51 59 60
244 244 246 214 197 200 193 197 184 152 281 239 173 189 179 176 94 224 226 209 218 170 167 223 177 200 235 233 182 244 176 204 215 194 127 225 277 253 137 144 84 54 60 67 59
233 240 240 223 202 197 182 171 152 143 234 224 148 162 148 204 238 119 156 201 213 232 267 233 201 162 195 212 194 156 109 67 55 103 255 206 187 223 191 175 131 161 102 66 50
232 233 235 221 193 195 179 165 174 206 98 195 176 159 189 160 216 183 157 177 158 164 223 235 242 164 167 176 110 148 111 278 287 211 243 342 200 264 149 100 135 176 128 33 29
235 230 234 218 197 183 170 171 182 224 200 358 142 164 182 152 224 184 141 195 246 134 120 192 267 198 202 218 204 187 182 173 208 208 270 328 232 280 131 125 105 42 7 8 12
231 238 216 201 196 178 166 194 196 164 192 166 54 153 193 195 153 160 197 199 203 180 185 162 251 11 42 78 195 180 206 195 110 133 280 222 288 333 134 144 355 7 15 1 350
228 232 213 198 188 172 178 206 217 207 128 198 215 161 172 177 174 179 179 193 200 186 136 198 107 308 229 127 41 202 138 140 100 233 238 239 256 224 186 185 133 342 323 329 329
222 233 214 202 180 187 200 186 205 192 191 174 216 230 202 184 150 179 207 311 150 78 102 128 113 267 343 183 172 142 145 79 119 141 186 262 253 282 152 135 178 249 291 304 323
211 227 187 182 184 199 207 171 193 167 175 193 200 212 182 175 182 190 203 206 177 148 164 198 138 153 184 315 333 57 187 166 159 232 29 152 256 135 127 165 211 281 324 333 332
207 214 180 174 193 169 152 171 183 161 176 183 191 210 139 189 209 206 201 65 141 143 165 180 142 128 345 327 17 192 347 92 87 76 187 165 248 199 115 8 345 336 328 327 324
189 174 217 192 195 167 145 162 150 185 177 157 164 139 153 181 184 190 170 173 163 138 126 107 116 182 205 132 129 161 174 170 114 141 200 243 274 214 340 331 326 321 318 318 317
191 217 189 174 171 173 167 156 154 150 163 161 180 194 179 156 150 180 163 133 70 142 65 112 123 89 69 89 73 91 159 173 174 172 199 181 246 293 292 299 298 301 304 305 310
161 177 166 177 142 164 172 178 170 139 149 182 185 190 194 170 196 168 137 152 165 93 92 9 97 73 54 58 50 278 225 211 210 213 250 258 267 263 290 297 288 299 306 309 310
185 186 181 167 157 162 185 165 183 138 186 183 166 149 150 115 92 95 92 106 136 126 113 99 130 139 157 135 104 285 220 213 197 191 216 245 267 283 299 309 308 311 309 304 308
Height
1499 1500 1502 1503 1504 1505 1506 1506 1505 1503 1504 1503 1502 1500 1497 1495 1494 1491 1488 1489 1488 1488 1488 1488 1488 1488 1489 1490 1490 1491 1503 1512 1503 1503 1494 1485 1485 1483 1485 1484 1483 1481 1479 1479 1480
1494 1495 1497 1499 1501 1501 1503 1503 1502 1501 1501 1502 1500 1498 1496 1493 1491 1489 1489 1487 1488 1487 1487 1487 1486 1486 1487 1487 1489 1490 1502 1500 1490 1489 1488 1485 1487 1484 1484 1482 1480 1480 1478 1477 1477
1489 1491 1493 1495 1496 1498 1499 1500 1499 1499 1498 1499 1498 1497 1494 1493 1490 1487 1486 1486 1485 1485 1486 1485 1485 1484 1484 1485 1487 1487 1492 1487 1485 1486 1486 1483 1484 1484 1485 1484 1481 1479 1478 1476 1476
1483 1485 1488 1490 1492 1494 1496 1496 1496 1496 1495 1496 1495 1494 1493 1492 1495 1485 1483 1484 1483 1483 1484 1484 1484 1483 1484 1484 1484 1489 1483 1483 1482 1484 1484 1482 1481 1480 1480 1481 1480 1478 1476 1475 1474
1476 1479 1483 1485 1488 1490 1492 1493 1493 1492 1492 1493 1493 1491 1490 1489 1483 1484 1481 1482 1482 1482 1482 1483 1483 1483 1483 1483 1483 1484 1481 1481 1480 1481 1480 1480 1478 1477 1473 1474 1474 1474 1473 1472 1472
1468 1472 1476 1480 1483 1485 1488 1490 1490 1490 1490 1489 1490 1489 1488 1486 1478 1478 1478 1478 1479 1480 1481 1483 1482 1483 1482 1482 1482 1479 1480 1479 1477 1475 1475 1475 1472 1474 1470 1470 1469 1469 1468 1468 1467
1459 1464 1468 1474 1478 1480 1483 1486 1486 1487 1487 1487 1487 1486 1482 1475 1476 1473 1474 1473 1474 1476 1477 1480 1482 1482 1481 1481 1479 1477 1479 1476 1472 1468 1469 1468 1472 1472 1469 1467 1465 1465 1463 1462 1461
1451 1456 1461 1466 1472 1475 1478 1480 1483 1483 1484 1484 1484 1483 1474 1469 1469 1466 1468 1467 1468 1468 1470 1477 1479 1480 1480 1480 1479 1481 1479 1484 1470 1470 1467 1467 1477 1465 1465 1463 1461 1460 1461 1459 1457
1443 1447 1453 1458 1465 1470 1474 1475 1478 1479 1481 1482 1482 1482 1469 1465 1462 1462 1463 1464 1464 1465 1468 1473 1476 1477 1479 1484 1489 1487 1491 1484 1477 1469 1471 1473 1473 1463 1461 1461 1459 1458 1459 1459 1458
1432 1439 1444 1451 1457 1464 1469 1471 1473 1475 1476 1478 1478 1484 1466 1462 1462 1459 1460 1461 1463 1464 1468 1470 1473 1476 1481 1486 1495 1488 1488 1482 1482 1471 1470 1474 1473 1464 1460 1459 1456 1457 1459 1458 1456
1421 1429 1437 1443 1450 1457 1462 1469 1473 1469 1467 1465 1464 1461 1459 1460 1458 1458 1460 1459 1461 1463 1467 1467 1474 1476 1474 1475 1475 1476 1481 1482 1473 1473 1474 1473 1473 1463 1454 1456 1457 1457 1456 1457 1457
1409 1418 1427 1436 1442 1450 1456 1457 1462 1461 1460 1456 1455 1456 1455 1458 1458 1455 1459 1460 1458 1462 1463 1470 1472 1462 1468 1472 1474 1478 1482 1481 1471 1467 1472 1469 1468 1459 1452 1457 1458 1457 1455 1456 1457
1399 1406 1414 1425 1433 1441 1446 1451 1457 1460 1460 1446 1445 1442 1446 1450 1445 1444 1453 1454 1455 1459 1462 1465 1462 1458 1465 1470 1474 1474 1478 1479 1480 1469 1465 1466 1462 1454 1452 1453 1457 1458 1457 1456 1457
1390 1395 1404 1412 1425 1427 1438 1445 1452 1460 1460 1433 1432 1424 1431 1437 1435 1433 1438 1448 1449 1450 1458 1458 1455 1458 1462 1465 1469 1473 1467 1472 1477 1479 1483 1465 1479 1451 1450 1455 1458 1459 1460 1459 1458
1382 1386 1393 1395 1406 1414 1422 1438 1448 1459 1465 1416 1418 1419 1420 1427 1425 1423 1426 1436 1434 1443 1448 1447 1451 1455 1457 1456 1462 1464 1461 1468 1472 1477 1476 1471 1480 1457 1450 1454 1457 1461 1462 1459 1457
1371 1379 1382 1390 1393 1406 1414 1431 1442 1457 1432 1410 1409 1416 1422 1422 1420 1422 1424 1432 1434 1442 1441 1441 1443 1446 1449 1449 1453 1458 1464 1469 1476 1479 1484 1467 1471 1451 1451 1447 1455 1460 1459 1458 1457
1360 1368 1371 1378 1380 1397 1406 1421 1432 1429 1407 1404 1405 1410 1414 1417 1420 1419 1425 1428 1431 1444 1443 1440 1437 1440 1442 1448 1451 1456 1465 1481 1483 1487 1473 1460 1464 1442 1450 1451 1454 1457 1455 1456 1457
1353 1358 1359 1367 1372 1382 1395 1406 1401 1391 1401 1397 1395 1402 1410 1408 1414 1415 1421 1428 1423 1425 1437 1440 1444 1434 1433 1433 1443 1451 1454 1473 1473 1477 1468 1464 1461 1449 1452 1452 1453 1454 1455 1456 1456
1347 1348 1350 1352 1356 1366 1382 1384 1366 1373 1382 1394 1398 1401 1406 1404 1407 1412 1420 1421 1416 1420 1429 1439 1436 1432 1431 1432 1437 1447 1450 1448 1466 1474 1474 1462 1454 1454 1453 1454 1455 1454 1454 1455 1454
1335 1339 1337 1341 1347 1353 1361 1368 1366 1360 1371 1384 1391 1393 1406 1405 1409 1411 1414 1411 1412 1414 1416 1425 1437 1434 1434 1433 1436 1435 1439 1454 1466 1467 1461 1453 1453 1445 1455 1455 1455 1456 1455 1454 1454
1329 1329 1318 1333 1340 1343 1336 1348 1359 1357 1364 1378 1384 1387 1391 1401 1406 1416 1413 1413 1414 1416 1418 1422 1432 1441 1435 1437 1438 1443 1450 1451 1452 1465 1460 1459 1436 1437 1443 1452 1454 1455 1454 1452 1447
1316 1317 1307 1320 1329 1326 1332 1336 1348 1350 1361 1371 1378 1382 1389 1395 1401 1414 1410 1411 1411 1411 1418 1420 1427 1439 1436 1439 1440 1439 1441 1442 1456 1476 1478 1478 1443 1439 1443 1449 1451 1450 1447 1444 1442
1303 1305 1307 1298 1310 1317 1336 1339 1343 1348 1355 1370 1374 1375 1384 1389 1403 1401 1406 1408 1410 1411 1415 1418 1429 1441 1439 1440 1439 1441 1444 1448 1451 1461 1474 1473 1445 1442 1440 1441 1441 1442 1443 1442 1441
1293 1297 1299 1288 1296 1306 1322 1335 1345 1348 1352 1360 1369 1377 1389 1388 1392 1399 1407 1407 1409 1409 1411 1412 1423 1421 1426 1429 1434 1442 1444 1445 1447 1462 1454 1444 1431 1437 1441 1443 1443 1442 1440 1438 1436
1279 1277 1276 1275 1293 1298 1304 1324 1333 1348 1352 1357 1368 1371 1374 1388 1391 1397 1400 1405 1408 1409 1411 1414 1421 1426 1431 1432 1435 1439 1442 1446 1448 1449 1450 1447 1443 1436 1441 1443 1442 1441 1439 1435 1431
1266 1270 1271 1272 1281 1297 1303 1315 1318 1335 1341 1352 1354 1363 1369 1374 1373 1385 1392 1398 1398 1408 1412 1417 1431 1428 1436 1434 1436 1442 1444 1446 1448 1447 1445 1446 1439 1438 1431 1437 1439 1436 1433 1429 1426
1258 1266 1264 1273 1276 1288 1292 1307 1311 1319 1339 1342 1350 1361 1373 1374 1377 1381 1385 1393 1396 1401 1413 1420 1430 1437 1439 1440 1443 1449 1431 1436 1438 1438 1440 1443 1435 1437 1432 1428 1429 1430 1429 1426 1422